Location: Banff
(51.1667°N, 115.5667°W)
Time: 14:19:03
(UTC+00:00)

Courier 1B Rocket - Pass Details

Date: 03 December 2020
Orbit: 920 x 1202 km, 28.2° (Epoch: 17 January)

Event Time Altitude Azimuth Distance (km) Brightness Sun altitude
Rises 14:20:41 0° 235° (SW) 4,090 7.9 -10.0°
Reaches altitude 10° 14:26:33 10° 201° (SSW) 3,125 7.7 -9.1°
Maximum altitude 14:28:13 11° 189° (S) 3,061 7.8 -8.9°
Drops below altitude 10° 14:29:53 10° 176° (S) 3,113 8.0 -8.6°
Sets 14:35:40 0° 142° (SE) 4,032 9.5 -7.8°
